Regional Weather Roundup
Issued by NWS

Home | Current Version | Previous Version | Graphics & Text | Print | Product List | Glossary On
Versions: 1 2 3 4 5 6 7 8 9 10 11 12 13 14 15 16 17 18 19 20 21 22 23 24 25 26 27 28 29 30 31 32 33 34 35 36 37 38 39 40 41 42 43 44 45 46 47 48 49 50
000
ASUS43 KDMX 172101
RWRIA

WEATHER ROUNDUP FOR IOWA
NATIONAL WEATHER SERVICE DES MOINES IA
300 PM CST WED JAN 17 2018

NOTE: "FAIR" INDICATES FEW OR NO CLOUDS BELOW 12,000 FEET WITH NO
SIGNIFICANT WEATHER AND/OR OBSTRUCTIONS TO VISIBILITY.

* - THESE STATIONS ARE NOT NWS STATIONS...THUS NOT UNDER NWS
QUALITY CONTROL.  THEY ALSO DO NOT REPORT WEATHER SUCH
AS PRECIPITATION OR FOG.

IAZ001>003-012>014-020>022-031>034-043>046-172200-
   NORTHWEST IOWA

CITY           SKY/WX    TMP DP  RH WIND       PRES   REMARKS
CARROLL *      SUNNY     23  14  68 SW21G31   30.31F WCI   8
CHEROKEE *     SUNNY     30  17  57 SW14G24   30.26F WCI  19
DENISON *      SUNNY     28  12  50 SW16G24   30.33F WCI  17
LE MARS *      SUNNY     34  18  51 S14       30.25F WCI  24
ORANGE CITY *  SUNNY     32  19  59 SW16G24   30.23F WCI  21
SHELDON *      SUNNY     30  16  55 SW20      30.19F WCI  18
SIOUX CITY     SUNNY     34  18  52 SW13      30.30F WCI  25
SPENCER        SUNNY     30  16  56 SW17      30.21F WCI  18
STORM LAKE *   SUNNY     27  16  63 SW20G28   30.26S WCI  13
$$

IAZ055>058-069>071-079>083-090>094-172200-
   SOUTHWEST IOWA

CITY           SKY/WX    TMP DP  RH WIND       PRES   REMARKS
ATLANTIC *     SUNNY     23  12  63 SW16      30.39F WCI  10
AUDUBON *      SUNNY     25  12  58 SW12G18   30.35F WCI  14
CLARINDA *     SUNNY     25  12  58 SW10G18   30.46F WCI  15
COUNCIL BLFS * SUNNY     25  12  58 S13G18    30.38F WCI  13
CRESTON *      SUNNY     23   9  54 SW20      30.41F WCI   8
HARLAN  *      SUNNY     21  10  63 S16G23    30.40F WCI   7
LAMONI         SUNNY     24   8  50 SW15      30.44F WCI  11
RED OAK *      SUNNY     25  12  58 SW16      30.43F WCI  12
SHENANDOAH *   SUNNY     25  12  58 SW14      30.45F WCI  13
$$

IAZ047>049-059>061-072>074-084-172200-
   CENTRAL IOWA

CITY           SKY/WX    TMP DP  RH WIND       PRES   REMARKS
AMES           SUNNY     24  13  62 SW17      30.37F WCI  11
ANKENY *       SUNNY     25   9  50 SW15      30.40F WCI  12
BOONE *        SUNNY     25  10  54 SW20G26   30.33F WCI  11
CHARITON *     SUNNY     23   9  54 SW13G22   30.42F WCI  11
DES MOINES     MOSUNNY   25   9  50 SW15      30.39F WCI  13
GRINNELL*      SUNNY     23  10  57 SW15      30.40F WCI  10
KNOXVILLE *    SUNNY     25   7  46 SW15      30.40F WCI  12
MARSHALLTOWN   SUNNY     24  10  55 SW18      30.35F WCI  10
NEWTON *       SUNNY     23   9  54 SW18      30.39F WCI   9
PELLA *        SUNNY     26   8  47 SW13      30.43F WCI  15
PERRY *          N/A     26  11  52 SW16      30.36F WCI  14
$$

IAZ004>006-015-016-023>025-035-036-172200-
   NORTH CENTRAL IOWA

CITY           SKY/WX    TMP DP  RH WIND       PRES   REMARKS
ALGONA *       SUNNY     28  21  74 SW18G24   30.23F WCI  16
CLARION *      SUNNY     25  16  68 SW21G28   30.28F WCI  10
ESTHERVILLE    SUNNY     26  16  65 SW17      30.18F WCI  13
FORT DODGE *   SUNNY     26  14  60 SW16G23   30.30F WCI  14
MASON CITY     SUNNY     24  12  60 SW21G26   30.25F WCI   9
FOREST CITY *    N/A     27  16  63 SW14G23   30.23F WCI  15
WEBSTER CITY * SUNNY     25  12  58 SW20G30   30.29F WCI  11
IOWA FALLS *     N/A     26  14  61 SW15G25   30.33F HAZE    WCI  13
$$

IAZ007>011-017>019-026>030-037>042-050>054-066-172200-
   NORTHEAST IOWA

CITY           SKY/WX    TMP DP  RH WIND       PRES   REMARKS
CEDAR RAPIDS     N/A     23  10  57 SW21      30.38F WCI   8
CHARLES CITY *   N/A     23  10  58 SW16G23   30.28F WCI  10
CLINTON *        N/A     21  12  68 SW17      30.42F WCI   7
DECORAH *        N/A     23   9  54 SW14G23   30.25F WCI  11
DUBUQUE          N/A     20   9  62 SW14      30.33F WCI   7
MONTICELLO *     N/A     23   9  54 SW14G21   30.37F WCI  11
OELWEIN *        N/A     21  12  68 SW18      30.33F WCI   6
WATERLOO         N/A     23  10  57 SW15G23   30.34F WCI  10
$$

IAZ064-065-067-068-078-172200-
   EAST CENTRAL IOWA

CITY           SKY/WX    TMP DP  RH WIND       PRES   REMARKS
DAVENPORT        N/A     21  10  62 SW15      30.44F WCI   8
IOWA CITY        N/A     24  10  55 SW15      30.45F WCI  11
MT. PLEASANT * SUNNY     23  12  63 SW16      30.47F WCI  10
MUSCATINE *      N/A     23  10  58 SW13      30.47F WCI  11
QUAD CITIES      N/A     22  11  62 SW13G21   30.44F WCI  10
$$

IAZ062-063-075>077-085>089-095>099-172200-
   SOUTHEAST IOWA

CITY           SKY/WX    TMP DP  RH WIND       PRES   REMARKS
BURLINGTON     SUNNY     21   9  59 SW13      30.48F WCI   9
FAIRFIELD *    SUNNY     23  10  58 SW14      30.45F WCI  11
FORT MADISON * SUNNY     21  12  68 SW10      30.49F WCI  10
KEOKUK *       SUNNY     21  10  63 SW14      30.49F WCI   8
OSKALOOSA *      N/A     24  11  58 SW15      30.44F WCI  11
OTTUMWA        SUNNY     24   9  52 SW15      30.44F WCI  11
WASHINGTON *   SUNNY     23  12  63 SW15      30.46F WCI  10
$$

ABBREVIATIONS USED IN REMARKS
   TC - TEMPERATURES IN CELSIUS
  WCI - WIND CHILL INDEX
   HX - HEAT INDEX
  VSB - VISIBILITY
$$




USA.gov is the U.S. government's official web portal to all federal, state and local government web resources and services.